Location: Carrières
(48.9495°N, 2.0407°E)
Time: 22:04:36
(UTC+00:00)

Transit 2A - Pass Details

Date: 27 April 2024
Orbit: 594 x 957 km, 66.7° (Epoch: 18 May)

Event Time Altitude Azimuth Distance (km) Brightness Sun altitude
Rises 12:48:21 0° 324° (NW) 3,251 9.1 53.1°
Reaches altitude 10° 12:50:39 10° 325° (NW) 2,375 8.5 52.9°
Maximum altitude 12:56:11 83° 55° (NE) 869 7.2 52.5°
Drops below altitude 10° 13:02:14 10° 143° (SE) 2,590 9.1 52.1°
Sets 13:04:50 0° 144° (SE) 3,564 9.6 51.9°
